Tracking 19219 objects as of 19-Jul-2018
HD Live streaming from Space Station
objects crossing your sky now

DELTA 2 DEB

Track DELTA 2 DEB now!
10-day predictions


NORAD ID: 27765
Int'l Code: 2000-040D
Perigee: 154.4 km
Apogee: 518.7 km
Inclination: 38.8 °
Period: 91.1 minutes
Semi major axis: 6707 km
RCS: 0.0144 m2 (small)
Launch date: July 16, 2000
Source: United States (US)
Launch site: AIR FORCE EASTERN TEST RANGE (AFETR)

Note: This is SATELLITE DEBRIS
aabbcc
Your satellite tracking list
Your tracking list is empty




NASA's NSSDC Master Catalog

Two Line Element Set (TLE):
1 27765U 00040D   18199.94423151  .01588557  49094-5  24459-3 0  9995
2 27765  38.7766  34.3581 0271542 174.4960 185.8924 15.80366051483795
Source of the keplerian elements: AFSPC